Regional Weather Roundup
Issued by NWS Upton, NY

Current Version | Previous Version | Text Only | Print | Product List | Glossary Off
Versions: 1 2 3 4 5 6 7 8 9 10 11 12 13 14 15 16 17 18 19 20 21 22 23 24 25 26 27

000
ASUS41 KOKX 240609
RWROKX

REGIONAL WEATHER ROUNDUP
NATIONAL WEATHER SERVICE NEW YORK NY
200 AM EDT MON APR 24 2017

NOTE: "FAIR" INDICATES FEW OR NO CLOUDS BELOW 12,000 FEET WITH NO
SIGNIFICANT WEATHER AND/OR OBSTRUCTIONS TO VISIBILITY.

NYZ071-072-176-178-NJZ106-104-240700-
NEW YORK CITY METRO AREA

CITY           SKY/WX    TMP DP  RH WIND       PRES   REMARKS
Central Park   CLEAR     51  38  60 CALM      30.15F
Wall St Helipt CLEAR     50  43  77 CALM      30.14F
Bronx Bot Gard   N/A     46  39  76 CALM      30.12F
LaGuardia APRT MOCLDY    52  40  63 S3        30.12F
Kennedy INTL   MOCLDY    48  46  93 SW3       30.14F
Breezy Point     N/A     46 N/A N/A SW3         N/A
Newark/Liberty MOCLDY    50  42  74 S5        30.13S
Teterboro      CLEAR     49  42  77 CALM      30.12F
$$

NYZ177-179-078>081-240700-
LONG ISLAND NEW YORK

CITY           SKY/WX    TMP DP  RH WIND       PRES   REMARKS
Jones Beach      N/A     48 N/A N/A SW3         N/A
Matinecock PT    N/A     46 N/A N/A S2          N/A
Farmingdale    CLEAR     46  43  89 CALM      30.13F
MacArthur/ISP  CLEAR     42  40  92 N3        30.13F
Shirley        CLEAR     39  38  96 CALM      30.14F
Mt Sinai Harb    N/A     46 N/A N/A MISG        N/A
Westhampton    CLEAR     36  34  92 CALM      30.16F
East Hampton     N/A     37  36  96 CALM      30.14F
Montauk          N/A     46  44  93 CALM      30.15F
$$

NYZ052-065-067-240700-
HUDSON VALLEY

CITY           SKY/WX    TMP DP  RH WIND       PRES   REMARKS
White Plains   PTCLDY    44  41  89 CALM      30.12S
Larchmont Harb   N/A     48 N/A N/A SE3         N/A
Croton O-T Hud   N/A     46 N/A N/A MISG        N/A
Newburgh       CLEAR     59  39  47 CALM      30.11R
Montgomery     CLEAR     44  39  82 CALM      30.09S
Poughkeepsie   CLEAR     45  39  79 CALM      30.10S
Albany         PTCLDY    45  36  70 CALM      30.08S
$$

NJZ001-105-106-008-010-013-015-019>022-104-240700-
NEW JERSEY

CITY           SKY/WX    TMP DP  RH WIND       PRES   REMARKS
Newark/Liberty MOCLDY    50  42  74 S5        30.13S
Teterboro      CLEAR     49  42  77 CALM      30.12F
Caldwell       CLEAR     48  42  80 CALM      30.12F
Somerville     CLEAR     44  42  93 CALM      30.11S
Linden           N/A     48  41  76 CALM      30.13F
Sussex         CLEAR     44  40  85 CALM      30.11S
Andover          N/A     47  43  86 CALM      30.10F
Trenton        PTCLDY    46  42  86 CALM      30.11F
Millville      CLOUDY    48  47  96 SE3       30.10F
Atlantic City  CLOUDY    48  44  86 E3        30.10F
Wrightstown    CLOUDY    45  44  94 CALM      30.09F
Toms River     CLOUDY    43  41  93 CALM      30.12F
Belmar         PTCLDY    46  44  93 CALM      30.13F
$$

PAZ047>061-062-071-240700-
EASTERN PENNSYLVANIA

CITY           SKY/WX    TMP DP  RH WIND       PRES   REMARKS
Philadelphia   CLOUDY    51  45  79 SE3       30.11F
Allentown      CLEAR     46  39  76 CALM      30.09F
Scranton       PTCLDY    50  36  58 SE3       30.08F
$$

CTZ002-004>006-009-010-012-RIZ004-006-007-MAZ004-011-015-240700-
SOUTHERN NEW ENGLAND
 IN CT

CITY           SKY/WX    TMP DP  RH WIND       PRES   REMARKS
Bradley INTL   PTCLDY    44  40  85 S8        30.11F
Hartford       PTCLDY    45  40  82 S8        30.12F
Danbury        PTCLDY    42  40  92 CALM      30.13F
Wtrbury/Oxford CLEAR     43  36  75 SW3       30.14F
Bridgeport     PTCLDY    49  43  80 CALM      30.13F
Meriden        PTCLDY    43  39  86 CALM      30.13F
New Haven      PTCLDY    44  40  85 CALM      30.13F
Chester          N/A     43  41  93 VRB3      30.13F
Groton         CLOUDY    45  38  76 CALM      30.13F
Wilimantic     CLEAR     43  39  86 CALM      30.14S

 IN RI

CITY           SKY/WX    TMP DP  RH WIND       PRES   REMARKS
Providence     CLEAR     43  40  89 S3        30.14S
Block Island   MOCLDY    44  42  93 SW9       30.14F
Westerly       CLOUDY    45  42  89 CALM      30.14F
 IN MA

CITY           SKY/WX    TMP DP  RH WIND       PRES   REMARKS
Boston         CLEAR     46  38  73 SW8       30.10S
Worcester      CLOUDY    44  36  73 SW13      30.09S
Westfield      CLOUDY    45  41  86 CALM      30.10S
Provincetown   CLEAR     44  42  93 SW9       30.13S
Nantucket      MOCLDY    45  42  89 SW10      30.15S
$$

ANZ330-335-338-340-345-350-353-355-240700-
COASTAL MARINE OBSERVATIONS


STATION/POSITION TIME  SKY/WX   TEMP    WIND        PRES    VSBY  WAVE
                                AIR SEA DIR/SP/G                  HT/PER
                 (UTC)          (F)     (DEG/KT/KT) (MB)    (MI)  (FT/S)
NY HARB ENTRANCE 0450            50 50  220/  8/  8 1020.8          3/13
20 S FIRE ISLAND 0550            48 48  160/  6/  6 1020.0          3/11
GREAT SOUTH BAY  0430            49 56  230/  8/ 10   N/A
23 SSW MONTAUK P 0450            46 45              1021.4          3/11
15 E BARNEGAT LI 0530               51                N/A           4/10
HUDSON CANYON    0450            47 48  100/  6/  6 1021.1          4/11
KINGS POINT      0542               49  190/  2/  3 1020.1
EXECUTION ROCKS  NOT AVBL
CENTRAL LI SOUND 0545            47     240/  4/  4   N/A           1
EASTERN LI SOUND NOT AVBL
ROBBINS REEF     0542                   210/  1/  2 1020.6
$$


>>>>>>>>>>>>>>>>>>>>>>>>>>>> KEY <<<<<<<<<<<<<<<<<<<<<<<<<<<
>                                                          <
>     SKY/WX - Sky Condition/Present Weather               <
>     TMP    - Temperature in Fahrenheit                   <
>     DP     - Dew Point in Fahrenheit                     <
>     RH     - Relative Humidity in Percent                <
>     WIND   - Direction (from) and Speed in MPH           <
>     PRES   - Mean Sea Level Pressure (inches of Hg)      <
>     WCI    - Wind Chill Index                            <
>     VSB    - VISIBILITY IN MILES                         <
>     HX     - HEAT INDEX                                  <
>     TC     - TEMPERATURE IN CELSIUS                      <
>     VRB    - VARIABLE WIND DIRECTION                     <
>                                                          <
>>>>>>>>>>>>>>>>>>>>>>>>>>>> KEY <<<<<<<<<<<<<<<<<<<<<<<<<<<




USA.gov is the U.S. government's official web portal to all federal, state and local government web resources and services.